[[{"header":{"parameterUnit":"m.s-1","parameterCategory":1,"la1":30.2991,"la2":30.254,"lo1":-89.0895,"lo2":-89.0444,"dy":0.0017,"dx":0.0017,"nx":28,"ny":28,"refTime":"2025-11-29T03:00:00:Z","depth":0,"parameterNumber":2,"parameterNumberName":"U-component_of_WINDS"},"data":[0,0,0,0,0,0,0,0,0,0,0,0,0,0,0,0,0,0,0,0,0,0,0,0,0,0,0,0,0,0,0,0,0,0,0,0,0,0,0,0,0,0,0,0,0,0,0,0,0,0,0,0,0,0,0,0,0,0,-1.9479,-1.9481,0,-1.9692,-1.9694,-1.9697,-1.9785,-1.9784,-1.9784,-1.9783,-2.0007,-2.0014,-2.002,0,0,0,0,0,0,0,0,0,0,0,0,0,-1.9153,-1.9158,-1.9478,-1.9481,-1.9484,-1.9691,-1.9694,-1.9697,-1.9785,-1.9784,-1.9783,-1.9783,-2.0005,-2.0013,-2.0021,0,0,0,0,0,0,0,0,0,0,0,0,0,-1.9323,-1.916,-1.9478,-1.9552,-1.9561,-1.9691,-1.9694,-1.9698,-1.9785,-1.9784,-1.9783,-1.9783,-2.0003,-2.0012,-2.0022,-2.0095,0,0,-2.0051,-2.0055,0,0,0,0,0,0,0,0,-1.9313,-1.9335,-1.9539,-1.9547,-1.9557,-1.9711,-1.9662,-1.9831,-1.9785,-1.97,-1.9783,-1.9782,-1.991,-1.9927,-1.9969,-2.0106,-2.0115,-2.0052,-2.0058,-2.0062,-2.0065,0,0,0,0,0,0,0,-1.9301,-1.9326,-1.9563,-1.9541,-1.9553,-1.9577,-1.96,-1.9694,-1.9806,-1.9707,-1.9714,-1.9738,-1.9915,-1.9959,-1.9975,-2.0119,-2.0052,-2.006,-2.0066,-2.007,-2.0328,-2.0329,0,0,0,0,0,0,-1.9276,-1.9316,-1.9556,-1.9569,-1.9431,-1.9583,-1.9609,-1.9662,-1.9806,-1.9827,-1.9738,-1.9741,-1.9943,-1.9963,-1.9983,-2.0079,-2.0062,-2.0071,-2.0076,-2.0327,-2.0328,-2.0329,0,0,0,0,0,0,-1.9269,-1.9297,-1.9548,-1.9445,-1.9478,-1.959,-1.9648,-1.9667,-1.9711,-1.9829,-1.985,-1.9763,-1.9943,-1.9969,-2.0066,-2.0088,-2.0075,-2.0084,-2.0326,-2.0327,-2.0329,-2.027,0,0,0,0,0,0,-1.9259,-1.9294,-1.9321,-1.9444,-1.9483,-1.9626,-1.965,-1.9672,-1.9727,-1.9733,-1.9857,-1.9877,-1.9945,-2.0051,-2.0076,-2.0101,-2.0091,-2.0324,-2.0326,-2.0328,-2.0271,-2.027,-2.0269,0,0,0,0,0,-1.9247,-1.9298,-1.9322,-1.9351,-1.952,-1.9627,-1.9649,-1.9724,-1.9728,-1.9758,-1.9834,-1.9873,-2.0081,-2.0061,-2.0089,-2.0117,-2.0323,-2.0326,-2.0328,-2.0271,-2.027,-2.0269,0,0,0,0,0,0,-1.9176,-1.9315,-1.9344,-1.9435,-1.9518,-1.9641,-1.9681,-1.972,-1.9805,-1.9807,-1.9898,-1.9926,-2.0015,-2.0076,-2.0051,-2.0196,-2.0206,-2.0214,-2.0153,-2.0152,-2.0151,-2.0135,-2.0099,0,0,0,0,0,-1.9171,-1.9244,-1.9362,-1.9431,-1.9471,-1.9568,-1.9618,-1.9668,-1.9759,-1.9795,-1.9878,-1.9965,-2.0051,-2.0105,-2.019,-2.028,-2.0309,-2.0313,-2.0312,-2.0311,-2.0317,-2.037,-2.0373,-2.0337,-2.0337,-2.0337,0,0,-1.9161,-1.9246,-1.9287,-1.9419,-1.9489,-1.9565,-1.9598,-1.9676,-1.9733,-1.9808,-1.9903,-1.9967,-2.0072,-2.0165,-2.0211,-2.0219,-2.0333,-2.0314,-2.0312,-2.0319,-2.0372,-2.0376,-2.0379,-2.0339,-2.0339,-2.0338,0,0,-1.9182,-1.9253,-1.9318,-1.9387,-1.9493,-1.9557,-1.9572,-1.969,-1.9734,-1.9832,-1.9889,-1.996,-2.0105,-2.0176,-2.0232,-2.028,-2.032,-2.0305,-2.03,-2.035,-2.0353,-2.0356,-2.0373,-2.0378,-2.0311,-2.0311,-2.0311,0,-1.9157,-1.9271,-1.9347,-1.9422,-1.9479,-1.9548,-1.9616,-1.968,-1.9808,-1.9847,-1.9854,-2.0037,-2.0112,-2.0223,-2.0235,-2.0278,-2.0299,-2.0291,-2.0346,-2.035,-2.0354,-2.0371,-2.0377,-2.0308,-2.0309,-2.0309,-2.0309,0,-1.9235,-1.9313,-1.9354,-1.9473,-1.9535,-1.9606,-1.9695,-1.9749,-1.9794,-1.9858,-1.9957,-2.005,-2.0155,-2.0185,-2.0231,-2.0304,-2.0305,-2.0328,-2.0339,-2.0353,-2.0371,-2.0378,-2.0305,-2.0306,-2.0306,-2.0307,0,0,-1.9217,-1.9377,-1.9391,-1.9446,-1.9567,-1.963,-1.9705,-1.9806,-1.985,-1.9937,-2.0002,-2.0123,-2.0145,-2.0208,-2.0262,-2.0306,-2.0338,-2.0324,-2.0328,-2.0323,-2.0425,-2.0407,-2.0413,-2.0366,-2.0367,-2.0369,-2.0416,0,-1.9253,-1.9388,-1.9459,-1.9564,-1.9638,-1.9704,-1.977,-1.9852,-1.9914,-1.9988,-2.0058,-2.0141,-2.0163,-2.0202,-2.0248,-2.0324,-2.036,-2.0322,-2.0429,-2.0432,-2.04,-2.0423,-2.0404,-2.0445,-2.0424,-2.0425,-2.0426,0,-1.9314,-1.9397,-1.9508,-1.9621,-1.9655,-1.9712,-1.981,-1.9879,-1.9974,-2.0017,-2.0086,-2.014,-2.0223,-2.0228,-2.0345,-2.0317,-2.0366,-2.041,-2.0414,-2.0427,-2.0429,-2.0436,-2.0459,-2.0465,-2.0438,-2.0437,-2.0436,0,-1.9289,-1.9429,-1.9514,-1.956,-1.9693,-1.9732,-1.9789,-1.9884,-1.994,-2.0027,-2.0064,-2.016,-2.0212,-2.0286,-2.0365,-2.0361,-2.0474,-2.0486,-2.0513,-2.0511,-2.0534,-2.0531,-2.0565,-2.0565,-2.0565,-2.0564,-2.0564,0,-1.9322,-1.9388,-1.9505,-1.9557,-1.9633,-1.9715,-1.9789,-1.9853,-1.9936,-2.0003,-2.0068,-2.013,-2.023,-2.0305,-2.0368,-2.0455,-2.0479,-2.0516,-2.0532,-2.051,-2.0505,-2.0543,-2.0542,-2.0566,-2.0566,-2.0566,-2.0565,0,-1.9307,-1.9388,-1.9485,-1.9603,-1.9634,-1.9685,-1.9787,-1.9841,-1.9906,-1.999,-2.0015,-2.0118,-2.021,-2.0296,-2.0419,-2.0461,-2.0549,-2.057,-2.0516,-2.0525,-2.0547,-2.0543,-2.0606,-2.0618,-2.0609,-2.0609,-2.0609,0,-1.9323,-1.9375,-1.9498,-1.9546,-1.9602,-1.968,-1.9736,-1.982,-1.9877,-1.999,-2.0031,-2.0127,-2.0208,-2.0352,-2.0439,-2.0534,-2.0557,-2.0572,-2.0572,-2.0548,-2.0558,-2.0553,-2.0559,-2.0571,-2.057,-2.057,-2.057,0,-1.9343,-1.938,-1.9458,-1.955,-1.9616,-1.9693,-1.9773,-1.981,-1.9909,-1.997,-2.0064,-2.0126,-2.0251,-2.0346,-2.0451,-2.0513,-2.0558,-2.0569,-2.0581,-2.0559,-2.0526,-2.0544,-2.0512,-2.0568,-2.0568,-2.0568,-2.0568,-2.0568,-1.9344,-1.9393,-1.9487,-1.9572,-1.9641,-1.9713,-1.977,-1.9841,-1.992,-2.0026,-2.0072,-2.0167,-2.0262,-2.0407,-2.0468,-2.0545,-2.0555,-2.0572,-2.0576,-2.0578,-2.0574,-2.0513,-2.0565,-2.0565,-2.0565,-2.0565,-2.0565,0,-1.9367,-1.943,-1.9508,-1.9616,-1.9684,-1.9719,-1.9809,-1.9863,-1.9945,-2.0029,-2.0107,-2.0215,-2.0307,-2.0401,-2.05,-2.0543,-2.0566,-2.0566,-2.0564,-2.0577,-2.0559,-2.054,-2.0545,-2.0545,-2.0545,-2.0545,-2.0545,-2.0545,-1.9387,-1.9471,-1.9519,-1.9639,-1.9704,-1.9795,-1.9843,-1.9912,-1.9979,-2.0095,-2.0172,-2.0232,-2.0321,-2.0426,-2.0512,-2.0538,-2.0571,-2.0565,-2.0596,-2.0578,-2.0579,-2.0579,-2.0561,-2.0571,-2.0571,-2.0608,-2.0608,-2.0609]},{"header":{"parameterUnit":"m.s-1","parameterCategory":1,"la1":30.2991,"la2":30.254,"lo1":-89.0895,"lo2":-89.0444,"dy":0.0017,"dx":0.0017,"nx":28,"ny":28,"refTime":"2025-11-29T03:00:00:Z","depth":0,"parameterNumber":3,"parameterNumberName":"V-component_of_WINDS"},"data":[0,0,0,0,0,0,0,0,0,0,0,0,0,0,0,0,0,0,0,0,0,0,0,0,0,0,0,0,0,0,0,0,0,0,0,0,0,0,0,0,0,0,0,0,0,0,0,0,0,0,0,0,0,0,0,0,0,0,2.6959,2.6955,0,2.6611,2.6607,2.6603,2.6394,2.6393,2.6392,2.6392,2.6018,2.6009,2.6,0,0,0,0,0,0,0,0,0,0,0,0,0,2.7427,2.742,2.696,2.6955,2.6951,2.6612,2.6607,2.6602,2.6394,2.6393,2.6392,2.6391,2.6021,2.601,2.5999,0,0,0,0,0,0,0,0,0,0,0,0,0,2.7166,2.7418,2.696,2.6807,2.679,2.6613,2.6607,2.6601,2.6395,2.6393,2.6392,2.6391,2.6025,2.6011,2.5998,2.5942,0,0,2.5956,2.595,0,0,0,0,0,0,0,0,2.7181,2.7149,2.6834,2.6817,2.6797,2.6545,2.6635,2.6379,2.6395,2.6544,2.6392,2.639,2.6193,2.6166,2.6103,2.5924,2.5908,2.5955,2.5947,2.5941,2.5937,0,0,0,0,0,0,0,2.72,2.7163,2.6821,2.6829,2.6807,2.675,2.6711,2.6585,2.638,2.6531,2.6515,2.6478,2.6183,2.6117,2.6093,2.5902,2.5956,2.5943,2.5935,2.593,2.5656,2.5657,0,0,0,0,0,0,2.7244,2.7179,2.6832,2.6811,2.699,2.6743,2.6699,2.6627,2.6381,2.6343,2.6479,2.6469,2.6141,2.6109,2.6079,2.5994,2.5941,2.5928,2.5921,2.5656,2.5657,2.5658,0,0,0,0,0,0,2.7255,2.7216,2.6846,2.6991,2.6939,2.6736,2.6657,2.6621,2.6554,2.6342,2.6303,2.645,2.6138,2.6098,2.5978,2.5978,2.5922,2.591,2.5654,2.5656,2.5657,2.5827,0,0,0,0,0,0,2.727,2.7221,2.7201,2.6992,2.6933,2.6757,2.6657,2.6615,2.6534,2.6517,2.6304,2.6268,2.6134,2.5999,2.5964,2.5959,2.5899,2.5653,2.5655,2.5657,2.5821,2.5834,2.5846,0,0,0,0,0,2.7287,2.7259,2.7201,2.716,2.6905,2.6757,2.6722,2.6574,2.6535,2.651,2.6374,2.6274,2.5986,2.5989,2.5947,2.5938,2.5652,2.5655,2.5657,2.5815,2.5832,2.5846,0,0,0,0,0,0,2.7467,2.7229,2.7162,2.7067,2.6935,2.6722,2.6687,2.6597,2.6468,2.6458,2.6274,2.6227,2.6125,2.6019,2.6027,2.5869,2.5807,2.5801,2.5942,2.5956,2.5969,2.5994,2.5888,0,0,0,0,0,2.7498,2.7404,2.7198,2.7133,2.7071,2.6892,2.6822,2.672,2.6572,2.6514,2.6368,2.6225,2.6101,2.6023,2.5897,2.5805,2.5753,2.5778,2.5791,2.5803,2.5798,2.5739,2.5746,2.5664,2.5664,2.5664,0,0,2.7556,2.7414,2.7364,2.7166,2.7052,2.6953,2.6845,2.6745,2.6668,2.6496,2.6375,2.6264,2.6091,2.5985,2.593,2.5893,2.581,2.5805,2.5816,2.5804,2.5742,2.575,2.5757,2.5666,2.5666,2.5665,0,0,2.7611,2.7497,2.743,2.7319,2.7149,2.703,2.7015,2.6816,2.6737,2.6614,2.6483,2.6386,2.6178,2.606,2.5972,2.5986,2.5888,2.595,2.6014,2.5959,2.5965,2.597,2.5971,2.5975,2.5947,2.5947,2.5947,0,2.7703,2.7555,2.7406,2.7314,2.7229,2.7076,2.7003,2.6901,2.6696,2.6638,2.6602,2.6338,2.621,2.6073,2.6077,2.6013,2.5985,2.5971,2.5978,2.5981,2.5983,2.5982,2.5983,2.5956,2.5955,2.5954,2.5953,0,2.7675,2.7574,2.754,2.7353,2.7264,2.7183,2.7016,2.6943,2.6849,2.6733,2.6607,2.645,2.629,2.625,2.6155,2.6098,2.608,2.6014,2.5947,2.6002,2.5998,2.5996,2.5968,2.5965,2.5962,2.596,0,0,2.7831,2.7566,2.7556,2.7469,2.7271,2.7187,2.7097,2.6946,2.6885,2.675,2.6666,2.6495,2.6432,2.6333,2.6223,2.6175,2.6192,2.6113,2.6106,2.613,2.6116,2.6166,2.6169,2.6129,2.6128,2.6127,2.613,0,2.7855,2.7693,2.7556,2.7442,2.7344,2.7198,2.7118,2.6986,2.6875,2.6771,2.6645,2.6527,2.6454,2.6393,2.634,2.6203,2.6186,2.62,2.6043,2.6039,2.6089,2.6167,2.6219,2.6229,2.6128,2.6127,2.6127,0,2.7861,2.7738,2.7616,2.7429,2.7382,2.7315,2.7164,2.707,2.6914,2.6836,2.6729,2.6616,2.6508,2.6456,2.6303,2.6316,2.6243,2.6166,2.6163,2.6139,2.6085,2.6142,2.6229,2.623,2.6124,2.6124,2.6124,0,2.7984,2.7787,2.7688,2.7619,2.7398,2.7353,2.7258,2.7103,2.702,2.6888,2.6831,2.6687,2.6606,2.6494,2.6342,2.6319,2.6204,2.614,2.6131,2.6135,2.611,2.6113,2.6184,2.6071,2.6071,2.6071,2.6071,0,2.8023,2.7953,2.7741,2.768,2.7596,2.7438,2.7357,2.7248,2.7111,2.7022,2.6885,2.6803,2.661,2.6503,2.6384,2.6273,2.6238,2.6168,2.6137,2.6179,2.6188,2.6126,2.612,2.6071,2.6071,2.6071,2.6071,0,2.8145,2.8001,2.7883,2.7686,2.7634,2.7581,2.7409,2.7341,2.7224,2.7113,2.7077,2.6891,2.6758,2.6598,2.6412,2.6331,2.6231,2.6185,2.6285,2.6266,2.6266,2.6267,2.6296,2.629,2.6187,2.6188,2.6189,0,2.8178,2.8122,2.7921,2.7855,2.7766,2.766,2.7577,2.7418,2.7336,2.7156,2.7109,2.6968,2.6846,2.664,2.6484,2.634,2.6288,2.6308,2.6264,2.6309,2.6284,2.6288,2.628,2.6318,2.632,2.6322,2.6323,0,2.8251,2.8183,2.8073,2.7937,2.7844,2.7727,2.7604,2.7556,2.7371,2.7285,2.7151,2.7058,2.687,2.6729,2.6567,2.6461,2.6359,2.6339,2.6329,2.6369,2.6428,2.6393,2.6313,2.6338,2.6336,2.6335,2.6334,2.6334,2.8326,2.8269,2.812,2.8,2.7893,2.7782,2.7709,2.7585,2.7473,2.7312,2.7224,2.7091,2.6934,2.6707,2.6606,2.6496,2.6459,2.6446,2.6441,2.6439,2.6451,2.645,2.6466,2.6465,2.6464,2.6464,2.6463,0,2.839,2.8288,2.818,2.8016,2.7921,2.7842,2.7701,2.7625,2.7513,2.7379,2.7263,2.7108,2.6971,2.6807,2.6658,2.6601,2.6551,2.6567,2.6567,2.6544,2.6493,2.6516,2.6611,2.6611,2.6611,2.6611,2.6611,2.6611,2.8412,2.8311,2.8225,2.8068,2.7963,2.7838,2.7764,2.7659,2.7551,2.7387,2.7275,2.7171,2.7023,2.6862,2.6732,2.6686,2.6636,2.6666,2.6606,2.6561,2.6548,2.6536,2.6556,2.6657,2.6657,2.6665,2.6665,2.6665]}]]